Powrót do katalogu

CZ-6A DEB

AktywnyPO
NORAD 61323·DEBRIS·🇨🇳 China

Wystrzelony Aug 6, 2024 z Taiyuan Satellite Launch Center

Loading…

Następne Przeloty (najbliższe 24 godziny)

TLE

ŚwieżeSource: Space-Track

Epoka: Sep 14, 2026, 10:18 UTC

1 61323U 24140UL  26257.42928686  .00004635  00000-0  88911-3 0  9991
2 61323  88.8437 244.4533 0072114 306.1760  53.2796 14.61934058107908

Śledź CZ-6A DEB w czasie rzeczywistym z AllMySat

Download on the App Store